Flag for Chile Weather past 2 weeks in Talcahuano, Chile

Now
55 °F

Fog.


Feels Like: 55 °F
Forecast: 54 / 58 °F
Wind: 2 mph from South

Location: Concepcion Airport

Current Time: Jun 3, 2015 at 12:38:25 PM

Latest Report: Jun 3, 2015 at 12:00 PM


Visibility: 3 mi

Pressure: 30.09 "Hg

Humidity: 100%

Dew point: 55 °F

Location of TalcahuanoLocation

Historic Weather in Talcahuano — Graph

°F

Talcahuano temperature yesterday

Maximum temperature yesterday: 59 °F (at 2:00 AM)
Minimum temperature yesterday: 57 °F (at 12:00 AM)
Average temperature yesterday: 58 °F

Past Weeks' High & Low Weather Summary

 TemperatureHumidityPressure
High63 °F (May 19, 1:00 PM)100% (May 19, 11:00 PM)30.27 "Hg (May 19, 11:00 PM)
Low34 °F (May 25, 5:00 AM)48% (May 24, 3:00 PM)29.86 "Hg (Jun 2, 5:00 PM)
Average52 °F90%30.07 "Hg
* Reported May 19 11:00 AM — Jun 3 11:00 AM, Talcahuano, Weather by CustomWeather, © 2015

Note: Actual official high and low records may vary slightly from our data, if they occured in-between our weather recording intervals... More about our weather records

Advertising

Talcahuano weather history for previous 24 hours

 ConditionsComfort  
Time TempWeatherWind HumidityBarometerVisibility
11:00 AM
Wed, Jun 3
54 °FFog.5 mph100%30.07 "Hg2 mi
10:00 AM48 °FFog.2 mph100%29.98 "Hg1 mi
9:00 AM50 °FFog.3 mph100%30.07 "Hg1 mi
8:00 AM50 °FFog.No wind100%30.07 "Hg4 mi
7:00 AM50 °FFog.3 mph100%30.04 "Hg1 mi
6:00 AM48 °FFog.No wind100%30.04 "Hg1 mi
5:00 AM50 °FFog.2 mph94%30.04 "Hg1 mi
4:00 AM54 °FFog.5 mph94%30.04 "Hg4 mi
3:00 AM57 °FPassing clouds.5 mph94%30.01 "HgN/A
2:00 AM59 °FPassing clouds.3 mph88%30.01 "HgN/A
1:00 AM59 °FPassing clouds.8 mph88%30.01 "HgN/A
12:00 AM59 °FPassing clouds.6 mph94%30.01 "HgN/A
11:00 PM
Tue, Jun 2
59 °FPartly cloudy.7 mph94%29.98 "HgN/A
10:00 PM59 °FMostly cloudy.6 mph94%29.98 "HgN/A
9:00 PM59 °FMostly cloudy.7 mph100%29.95 "HgN/A
8:00 PM59 °FLight rain. Low clouds.12 mph100%29.92 "Hg3 mi
7:00 PM59 °FHeavy rain. Mostly cloudy.16 mph100%29.89 "Hg1 mi
6:00 PM59 °FHeavy rain. Mostly cloudy.17 mph100%29.86 "Hg1 mi
5:00 PM59 °FHeavy rain. Mostly cloudy.24 mph94%29.86 "Hg1 mi
4:00 PM59 °FDrizzle. Fog.23 mph94%29.89 "Hg1 mi
3:00 PM57 °FFog.23 mph100%29.92 "Hg2 mi
2:00 PM57 °FFog.24 mph100%29.92 "Hg2 mi
1:00 PM57 °FFog.23 mph100%29.95 "Hg2 mi
12:00 PM57 °FDrizzle. Fog.21 mph100%29.98 "Hg1 mi
Weather by CustomWeather, © 2015

See weather overviewHow to use our weather pages